Waarnemingen

Advertentie
Mijn weer
Trapani/Birgi, Italië (16429): temperatuur & dauwpunt: 17.10.2018 22:00:00 - 23.10.2018 22:00:00 (CEST)Trapani/Birgi, Italië (16429): windsnelheid: 17.10.2018 22:00:00 - 23.10.2018 22:00:00 (CEST)Trapani/Birgi, Italië (16429): windrichting: 17.10.2018 22:00:00 - 23.10.2018 22:00:00 (CEST)Trapani/Birgi, Italië (16429): luchtdruk: 17.10.2018 22:00:00 - 23.10.2018 22:00:00 (CEST)Trapani/Birgi, Italië (16429): zicht: 17.10.2018 22:00:00 - 23.10.2018 22:00:00 (CEST)Trapani/Birgi, Italië (16429): Zonneschijnduur: 17.10.2018 22:00:00 - 23.10.2018 22:00:00 (CEST)
Datum & Tijd tt [°C] td [°C] ff [km/u] ff [kn] dd ppp [hPa] vv [km] sd [min]
23.10.2018 22:00:00 19,6 15,0 21 11 N 1016,0 15 -
23.10.2018 21:00:00 20,0 15,9 21 11 N 1015,9 15 -
23.10.2018 20:00:00 20,0 15,2 28 15 N 1015,2 15 -
23.10.2018 19:00:00 20,0 15,7 24 13 N 1015,0 12 -
23.10.2018 18:00:00 20,0 15,2 31 17 N 1014,1 15 12
23.10.2018 17:00:00 21,2 16,2 15 8 N 1014,1 18 24
23.10.2018 16:00:00 21,4 15,9 34 18 N 1013,2 15 30
23.10.2018 15:00:00 21,2 16,2 31 17 N 1013,1 15 -
23.10.2018 14:00:00 21,2 16,2 39 21 N 1013,3 18 36
23.10.2018 13:00:00 21,2 16,2 35 19 N 1013,4 18 -
23.10.2018 12:00:00 21,0 16,6 29 16 N 1014,1 20 54
23.10.2018 11:00:00 20,2 15,2 26 14 N 1013,9 20 54
23.10.2018 10:00:00 19,8 14,8 29 16 N 1013,1 20 30
23.10.2018 09:00:00 17,0 13,3 18 10 NNO 1012,1 20 0
23.10.2018 08:00:00 16,0 13,8 11 6 NNO 1011,0 20 -
23.10.2018 07:00:00 16,0 14,2 15 8 NNO 1010,1 12 -
23.10.2018 06:00:00 17,0 13,5 22 12 N 1009,1 12 -
23.10.2018 05:00:00 16,4 14,1 37 20 N 1008,9 12 -
23.10.2018 04:00:00 17,0 12,7 29 16 N 1009,1 14 -
23.10.2018 03:00:00 17,4 12,7 26 14 NNW 1009,4 12 -
23.10.2018 02:00:00 17,6 12,9 29 16 NNW 1009,9 10 -
23.10.2018 01:00:00 17,8 12,5 28 15 NW 1010,2 10 -
23.10.2018 00:00:00 17,2 11,7 29 16 NW 1011,0 12 -
22.10.2018 23:00:00 17,0 12,5 22 12 WNW 1011,2 10 -
22.10.2018 22:00:00 17,0 12,7 34 18 NW 1011,1 10 -
22.10.2018 21:00:00 16,6 14,4 18 10 WNW 1011,2 12 -
22.10.2018 20:00:00 17,0 14,8 24 13 WNW 1011,2 10 -
22.10.2018 19:00:00 18,0 13,3 22 12 NW 1011,1 15 -
22.10.2018 18:00:00 18,8 12,1 24 13 WNW 1011,4 15 0
22.10.2018 17:00:00 19,2 12,5 26 14 WNW 1012,0 15 0
22.10.2018 16:00:00 19,2 11,7 28 15 WNW 1012,1 18 24
22.10.2018 15:00:00 19,6 11,9 21 11 NW 1012,4 15 0
22.10.2018 14:00:00 20,0 12,0 22 12 NNW 1013,0 15 0
22.10.2018 13:00:00 20,2 12,2 24 13 NNW 1013,1 18 6
22.10.2018 12:00:00 20,2 13,7 22 12 NNW 1013,2 14 60
22.10.2018 11:00:00 21,0 14,7 22 12 NW 1013,2 14 48
22.10.2018 10:00:00 19,0 15,1 4 2 N 1013,1 16 6
22.10.2018 09:00:00 16,2 14,5 4 2 N 1013,0 20 0
22.10.2018 08:00:00 15,2 13,6 2 1 N 1012,1 15 6
22.10.2018 07:00:00 16,2 14,2 4 2 OZO 1011,9 12 -
22.10.2018 06:00:00 16,8 14,8 11 6 NO 1012,1 12 -
22.10.2018 05:00:00 17,0 15,9 34 18 N 1012,3 10 -
22.10.2018 04:00:00 20,8 18,5 22 12 WZW 1012,2 12 -
22.10.2018 03:00:00 20,2 17,4 18 10 WZW 1013,3 12 -
22.10.2018 02:00:00 20,0 17,6 16 9 WZW 1014,2 12 -
22.10.2018 01:00:00 19,2 17,5 13 7 W 1014,8 12 -
22.10.2018 00:00:00 19,2 17,7 4 2 Z 1015,1 12 -
21.10.2018 23:00:00 20,2 18,5 8 4 WNW 1015,4 12 -
21.10.2018 22:00:00 20,4 18,4 9 5 WNW 1015,5 12 -
21.10.2018 21:00:00 20,8 18,5 11 6 WNW 1015,2 12 -
21.10.2018 20:00:00 21,2 18,6 8 4 NW 1015,4 14 -
21.10.2018 19:00:00 21,4 18,2 9 5 NW 1015,5 14 -
21.10.2018 18:00:00 22,2 18,6 11 6 NW 1015,9 10 42
21.10.2018 17:00:00 23,0 18,5 13 7 NW 1016,2 16 -
21.10.2018 16:00:00 23,0 18,5 13 7 NW 1016,5 18 60
21.10.2018 15:00:00 23,0 18,3 13 7 NNW 1017,1 18 60
21.10.2018 14:00:00 23,0 18,1 15 8 NNW 1017,9 18 60
21.10.2018 13:00:00 22,4 17,8 13 7 NNW 1018,6 18 -
21.10.2018 12:00:00 22,0 17,8 9 5 NW 1018,9 16 -
21.10.2018 11:00:00 21,6 18,0 4 2 N 1019,0 14 -
21.10.2018 10:00:00 19,0 16,4 4 2 N 1019,0 12 0
21.10.2018 09:00:00 16,8 14,4 5 3 ZO 1018,6 12 0
21.10.2018 08:00:00 15,8 13,5 8 4 ZO 1018,3 12 0
21.10.2018 07:00:00 17,0 14,8 8 4 O 1018,5 12 -
21.10.2018 06:00:00 17,0 14,8 4 2 OZO 1018,9 12 -
21.10.2018 05:00:00 16,8 14,6 5 3 O 1019,0 12 -
21.10.2018 04:00:00 17,0 14,8 4 2 N 1019,1 12 -
21.10.2018 03:00:00 17,4 15,2 0 0 N 1019,8 12 -
21.10.2018 02:00:00 17,6 15,6 5 3 OZO 1020,0 12 -
21.10.2018 01:00:00 18,0 16,3 4 2 ONO 1020,1 12 -
21.10.2018 00:00:00 18,0 16,2 8 4 NNO 1020,1 12 -
20.10.2018 23:00:00 18,0 16,3 5 3 ZZO 1020,2 12 -
20.10.2018 22:00:00 18,8 17,1 5 3 ONO 1020,1 12 -
20.10.2018 21:00:00 19,4 17,7 4 2 N 1019,6 12 -
20.10.2018 20:00:00 20,4 18,7 4 2 N 1019,4 15 -
20.10.2018 19:00:00 21,4 19,7 8 4 N 1019,2 16 0
20.10.2018 18:00:00 23,2 20,7 16 9 N 1019,2 16 30
20.10.2018 17:00:00 23,0 19,8 21 11 N 1019,2 16 60
20.10.2018 16:00:00 23,4 20,2 18 10 N 1019,3 16 60
20.10.2018 15:00:00 23,4 20,3 22 12 N 1019,8 16 60
20.10.2018 14:00:00 23,4 20,0 16 9 NNW 1020,0 18 60
20.10.2018 13:00:00 23,2 20,0 15 8 NNW 1020,5 16 60
20.10.2018 12:00:00 23,2 20,2 9 5 NW 1020,2 14 60
20.10.2018 11:00:00 22,2 18,6 5 3 W 1020,1 14 36
20.10.2018 10:00:00 20,2 18,0 2 1 O 1020,1 14 0
20.10.2018 09:00:00 17,6 15,4 2 1 ZZO 1019,1 12 0
20.10.2018 08:00:00 16,4 14,2 4 2 ONO 1018,2 12 0
20.10.2018 07:00:00 16,6 14,4 8 4 OZO 1018,3 12 -
20.10.2018 06:00:00 16,4 14,8 5 3 OZO 1018,1 12 -
20.10.2018 05:00:00 16,4 14,6 5 3 OZO 1017,5 12 -
20.10.2018 04:00:00 16,4 14,8 8 4 OZO 1017,8 12 -
20.10.2018 03:00:00 16,0 -16,9 9 5 OZO 1017,3 12 -
20.10.2018 02:00:00 16,0 14,0 8 4 OZO 1017,3 12 -
20.10.2018 01:00:00 17,0 15,2 5 3 OZO 1017,4 12 -
20.10.2018 00:00:00 18,0 16,3 4 2 O 1017,1 12 -
19.10.2018 23:00:00 18,4 16,9 5 3 O 1017,1 12 -
19.10.2018 22:00:00 19,0 17,7 8 4 ZO 1016,7 12 -
19.10.2018 21:00:00 20,0 18,0 5 3 OZO 1016,2 12 -
19.10.2018 20:00:00 21,0 18,4 2 1 N 1015,8 12 -
19.10.2018 19:00:00 21,2 18,4 5 3 W 1014,7 20 -
19.10.2018 18:00:00 22,4 18,6 8 4 W 1014,1 25 54
19.10.2018 17:00:00 23,2 18,5 11 6 WZW 1013,6 25 60
19.10.2018 16:00:00 23,2 18,7 11 6 W 1013,6 25 60
19.10.2018 15:00:00 23,0 18,8 9 5 WZW 1013,1 20 60
19.10.2018 14:00:00 22,8 17,9 16 9 ZW 1013,1 20 60
19.10.2018 13:00:00 22,8 17,9 18 10 ZW 1013,1 10 60
19.10.2018 12:00:00 22,4 15,0 16 9 W 1013,0 20 60
19.10.2018 11:00:00 22,4 16,0 8 4 Z 1012,2 20 60
19.10.2018 10:00:00 20,0 14,8 9 5 Z 1011,9 20 42
19.10.2018 09:00:00 16,6 14,2 5 3 O 1011,1 10 42
19.10.2018 08:00:00 15,2 13,2 9 5 ZO 1010,7 10 0
19.10.2018 07:00:00 15,0 13,2 8 4 OZO 1010,1 12 -
19.10.2018 06:00:00 15,4 13,4 9 5 ZO 1010,1 12 -
19.10.2018 05:00:00 16,0 13,7 4 2 - 1010,0 12 -
19.10.2018 04:00:00 16,0 13,3 5 3 ONO 1010,0 12 -
19.10.2018 03:00:00 15,2 12,9 8 4 NNO 1009,9 12 -
19.10.2018 02:00:00 15,4 13,3 8 4 NNO 1008,7 12 -
19.10.2018 01:00:00 16,2 13,3 5 3 NO 1009,1 10 -
19.10.2018 00:00:00 16,2 12,6 4 2 O 1010,1 12 -
18.10.2018 23:00:00 16,0 13,1 9 5 ONO 1009,1 12 -
18.10.2018 22:00:00 17,6 12,5 9 5 OZO 1008,4 12 -
18.10.2018 21:00:00 17,2 12,9 13 7 O 1008,4 12 -
18.10.2018 20:00:00 17,0 13,0 15 8 O 1008,5 12 -
18.10.2018 19:00:00 17,0 13,5 15 8 O 1008,5 12 -
18.10.2018 18:00:00 16,2 14,2 24 13 OZO 1008,1 12 0
18.10.2018 17:00:00 16,4 14,8 13 7 ZO 1008,1 6 0
18.10.2018 16:00:00 19,0 17,3 22 12 N 1007,1 6 0
18.10.2018 15:00:00 19,0 17,8 24 13 N 1008,1 5 0
18.10.2018 14:00:00 20,0 19,0 18 10 N 1008,2 7 0
18.10.2018 13:00:00 20,0 19,0 24 13 N 1009,8 6 0
18.10.2018 12:00:00 20,6 17,0 22 12 NNW 1009,9 12 0
18.10.2018 11:00:00 23,8 16,1 9 5 O 1009,1 12 0
18.10.2018 10:00:00 23,6 14,9 26 14 OZO 1008,4 16 0
18.10.2018 09:00:00 23,0 14,3 18 10 O 1008,1 16 0
18.10.2018 08:00:00 19,6 14,6 21 11 OZO 1007,5 16 0
18.10.2018 07:00:00 18,0 15,6 5 3 ONO 1008,3 15 -
18.10.2018 06:00:00 18,0 15,4 8 4 O 1008,1 10 -
18.10.2018 05:00:00 19,0 15,5 4 2 ONO 1008,1 15 -
18.10.2018 04:00:00 19,2 15,3 4 2 NO 1008,1 15 -
18.10.2018 03:00:00 20,0 16,0 11 6 ONO 1008,3 15 -
18.10.2018 02:00:00 20,0 17,8 11 6 ONO 1009,3 15 -
18.10.2018 01:00:00 20,0 18,0 5 3 OZO 1010,4 15 -
18.10.2018 00:00:00 20,0 18,5 5 3 ONO 1011,0 10 -
17.10.2018 23:00:00 20,2 19,0 9 5 O 1011,6 15 -
17.10.2018 22:00:00 20,6 19,2 5 3 ZZO 1011,9 15 -

tt = temperatuur
td = dauwpunt
ff = windsnelheid
dd = windrichting
ppp = luchtdruk
vv = zicht
sd = Zonneschijnduur

Weerstations in de omgeving